GFSNW_prec_radar_006.txt.gz
Reflectivity
-20 -8 -20 12 15 29 31 29 7 24 20 38 39 18 -20 -20 -20 -20 -20 -20 -20 -20 -20 -20 -20 -20 -20 -20 -20 -20 -18 7 -20 -20 -20 -20 -20 -20 -20 -11 -20 -20 -20 -20
-20 -9 -1 1 20 28 36 34 24 33 21 31 31 -20 -20 -20 -20 -20 -20 -20 -20 -9 -20 -20 -20 -20 -20 -20 -20 -20 -12 11 -3 2 14 12 12 -8 -20 -17 -13 -17 -20 -20
6 -16 -20 3 18 11 25 30 36 34 33 27 -14 -19 -20 -20 -20 -20 -20 -11 -20 -20 -20 -20 -20 -20 -20 -20 -20 -20 -5 12 13 14 22 29 25 11 1 -20 -1 -16 -10 -4
13 -20 -20 20 17 13 26 17 18 23 21 19 -19 -18 -20 -20 -20 -20 -4 9 -2 -13 16 -14 -9 -20 -20 -20 -20 18 22 -4 11 23 28 35 32 27 -3 9 -17 -20 2 11
-3 -20 3 18 26 29 17 14 -3 -20 -18 -5 -20 -20 -20 -20 -1 11 -16 -17 -17 15 11 -20 -19 -20 -20 -20 -20 -8 25 29 30 14 26 28 31 3 3 -1 -15 -20 -4 18
-20 -20 -16 16 29 28 27 24 21 -7 4 1 -20 -20 -20 -20 -20 -20 -0 -7 -5 4 -13 -0 -5 10 -20 -10 18 28 27 30 23 10 12 11 19 8 -6 -12 -11 -18 -20 4
-20 -20 -8 9 22 24 22 30 15 -20 -2 -6 -19 -2 6 -20 -2 -20 -11 -20 0 -3 -11 -3 6 -20 -13 -20 -20 -20 13 29 33 9 27 20 21 -20 -20 -20 -19 -16 -3 15
-20 -20 -20 -0 17 21 23 32 20 6 -19 3 -15 20 -20 -17 -10 -5 -17 -20 -17 -15 12 8 5 -20 -20 -20 -20 -20 -20 27 27 17 6 8 -14 11 -20 -20 -20 -20 -20 -19
7 -20 -20 -20 10 9 14 25 33 31 6 -14 -19 -8 2 -9 -5 18 -20 -11 -20 9 15 31 -2 -20 -20 -20 -20 -20 -20 -15 21 -17 -20 -20 12 3 -12 -17 -19 -20 -7 -20
6 -13 4 -20 1 -1 9 20 28 23 2 -8 -14 -18 -10 -20 -18 -15 -12 -20 -15 8 15 20 7 -20 -20 -20 -20 -20 -20 -20 -15 -15 -14 -20 -20 -19 -20 -17 -20 -20 -20 -20
-3 -12 4 -20 -8 8 17 31 29 24 -5 1 -7 -14 14 -20 -18 -20 -14 -10 -6 17 18 24 9 -15 -20 -20 -20 -20 -20 -20 -20 -20 -20 -20 -20 -20 -20 -20 -20 -20 -20 -20
-7 -19 5 -20 -15 12 11 5 21 11 21 -18 -20 -2 -20 -20 -20 -9 1 -20 8 14 13 14 -14 -10 -20 -20 -20 -20 -20 -20 -20 -20 -20 -20 -20 -20 -20 -20 -20 -20 -20 -20
-1 -9 1 -20 -16 3 19 18 6 -2 -0 -20 -20 -20 -20 -20 -20 -20 -16 -10 14 17 25 34 -17 -8 -20 -20 -20 -20 -20 -20 -20 -20 -20 -20 -20 -20 -20 -20 -20 -20 -20 -20
3 5 -20 -20 -7 -20 12 12 10 13 -2 -17 -20 -20 -20 -20 -20 -20 -20 -8 -8 24 27 22 11 -20 -20 -20 -20 -20 -20 -20 -20 -20 -20 -20 -20 -20 -20 -20 -20 -20 -20 -20
-20 -20 -20 -19 -5 -10 1 -13 15 -2 -7 -2 -15 -20 -20 -20 -20 -20 -20 -18 13 21 23 17 6 -20 -20 -20 -20 -20 -20 -20 -20 -20 -20 -20 -20 -20 -20 -20 -20 -20 -20 -20
-17 -20 -20 -20 -20 -20 -20 -20 11 10 28 5 7 -18 -20 -20 -20 -6 -20 17 24 22 20 19 7 -20 -20 -20 -20 -20 -20 -20 -20 -20 -20 -20 -20 -20 -20 -20 -20 -20 -20 -20
-19 -20 -20 -20 -20 -20 1 8 20 15 5 12 -14 -20 -20 -20 -20 -12 -19 13 1 24 24 26 8 6 -9 -20 -20 -20 -20 -20 -20 -20 -20 -20 -20 -20 -20 -20 -20 -20 -20 -20
-14 -20 -20 -20 -10 -18 -9 8 23 3 13 8 -2 -20 -13 -16 -13 -8 -20 0 -7 26 20 26 26 1 -17 -20 -17 -20 -20 -20 -20 -20 -20 -20 -20 -20 -20 -20 -20 -20 -20 -20
-20 -20 -6 4 4 -3 2 17 13 -14 17 -3 -18 -20 -20 -20 19 -17 -20 -8 9 23 10 2 11 13 0 -20 -20 -20 -20 -20 -20 -20 -20 -20 -20 -20 -20 -20 -20 -20 -20 -17
-20 -19 -4 20 -11 -5 26 28 20 25 20 -6 -18 -20 -20 -20 -20 -20 -20 -20 -16 12 1 -12 -16 -20 -20 -20 -20 -20 -20 -20 -20 -20 -20 -20 -20 -20 -20 -20 -20 -20 -20 -20
-20 -20 -0 -13 2 30 33 28 6 17 26 2 -8 -20 -20 -20 -20 -20 -20 -8 -20 -20 -20 -18 -20 -20 -20 -20 -20 -20 -20 -20 -20 -20 -20 -20 -20 -20 -20 -20 -20 -20 -20 -20
-1 10 -6 7 25 36 30 27 17 0 -20 -20 -16 -20 -20 -20 -20 -20 -20 -20 -4 -20 -20 -20 -14 -20 -20 -20 -20 -20 -20 -20 -20 -20 -20 -20 -20 -20 -20 -20 -20 -20 -20 -20
-20 -10 -6 8 25 25 17 -6 1 -6 -20 -20 -3 -2 -20 -20 -20 -20 -20 -20 -20 -20 -20 -20 -20 -20 -20 -20 -20 -20 -20 -20 -20 -20 -20 -20 -20 -20 -20 -20 -20 -20 -20 -20
-20 -20 -20 11 14 22 14 7 2 8 -20 -20 -12 -20 -20 -20 -20 -20 -20 -20 -20 -20 -20 -20 -20 -20 -20 -20 -20 -20 -20 -20 -20 -20 -20 -20 -20 -20 -20 -20 -20 -20 -20 -20
-20 -20 -20 5 23 13 -4 -3 23 -8 -20 -20 -20 -20 -20 -20 -20 -20 -20 -20 -20 -20 -20 -20 -20 -20 -20 -20 -20 -20 -20 -20 -20 -20 -20 -20 -20 -20 -20 -20 -20 -20 -20 -20
-9 -18 -20 -18 -20 -20 -20 -10 6 7 -20 -20 -17 -13 -20 -20 -20 -20 -20 -20 -20 -20 -20 -20 -20 -20 -20 -20 -20 -20 -20 -20 -20 -20 -20 -20 -20 -20 -20 -20 -20 -20 -20 -20
-12 -20 -17 2 -20 -20 -20 1 -18 24 19 9 -3 -20 -20 -20 -20 -20 -20 -20 -20 -20 -20 -20 -20 -20 -20 -20 -20 -20 -20 -20 -20 -20 -20 -20 -20 -20 -20 -20 -20 -20 -20 -20

GFSNW_prec_radar_009.txt.gz
Reflectivity
-20 -2 6 -20 -17 16 23 33 23 17 24 36 31 23 -19 -20 -20 -20 -20 -20 -20 -20 -20 -20 -20 -20 -20 -20 -20 -13 -20 -11 -12 -20 -20 -20 -20 -9 10 6 -16 -19 -20 -20
11 12 -17 -20 -4 23 21 26 29 16 26 1 23 26 -20 -20 -20 -20 -20 -20 -20 -20 -20 -20 -20 -20 -20 -20 -20 -20 -20 6 -20 -20 -19 -8 14 18 27 13 11 7 -10 -20
2 -15 -20 -7 22 18 24 28 34 33 31 16 -2 -20 -20 -20 -20 -20 -20 -20 -20 -20 -20 -20 -20 -20 -20 -20 -20 -20 -20 -9 -20 -20 -1 33 23 14 20 28 2 -20 -20 -20
14 -20 3 3 20 32 33 33 18 4 7 24 -20 1 1 -20 -20 -20 -20 -12 -6 -20 -5 -13 -20 -20 -20 -20 -20 -20 -12 -11 -17 -18 -19 26 32 24 8 19 -3 -7 -20 -20
11 -20 -6 -5 19 24 21 34 9 -20 6 12 14 -6 -20 -20 -20 -20 -20 -20 -20 -20 13 -20 -20 -20 -20 -20 -20 -20 10 6 18 -20 -19 19 20 17 18 -11 -20 -20 -20 -20
12 -20 -9 5 14 22 3 18 8 -17 -15 14 -20 -20 -20 -20 -20 -20 -10 -20 -10 9 2 -6 -12 -10 -13 -17 -16 -19 18 8 9 -6 11 32 10 2 12 0 -19 -20 3 8
12 -20 -20 -1 6 19 22 13 21 -11 2 -20 -20 -20 -20 -20 -20 -20 -17 -6 6 -2 -17 -20 -16 -20 -20 -15 -20 -20 -10 -2 25 -3 12 19 30 26 -3 -18 -20 -20 -2 3
-14 9 -20 -20 -7 19 20 25 20 -1 -14 0 -20 -20 -20 -20 -20 -20 -20 -19 -20 -19 9 -20 -12 -20 -20 -20 -20 -20 -20 6 22 18 23 21 4 9 -8 -20 -20 -20 2 10
-5 4 -20 -20 -20 4 10 23 13 15 12 -20 -20 -20 -20 -20 -20 -18 -20 -18 -20 -20 -20 7 24 -20 -20 -20 -20 -20 -15 -15 18 -1 -8 7 -8 4 -20 -20 -20 2 -6 -9
-5 8 -1 -20 -20 -15 19 25 30 23 15 -20 -20 -20 -20 -20 -16 -13 -16 -19 -20 -1 10 15 17 -19 -20 -20 -20 -20 -18 -20 -14 -14 -10 -20 -12 -11 -12 -19 -20 -20 9 -13
-2 8 -1 -6 -20 1 6 16 7 32 24 18 -18 -20 -20 -20 -20 -20 -18 -12 -20 -18 11 13 -10 -19 -20 -20 -20 -20 -20 -20 -20 -20 -20 -20 -20 -20 -20 -20 -20 -20 -14 -12
4 8 10 -19 -20 -16 3 8 13 20 10 -18 -20 -20 -20 -20 -20 -20 -20 -18 -20 -0 23 19 19 -10 -20 -20 -20 -20 -20 -20 -20 -20 -20 -20 -20 -20 -20 -20 -20 -20 -11 3
-18 -18 -20 -20 -20 -19 2 8 20 21 15 -19 -20 -20 -20 -20 -20 -20 -14 -20 -11 -1 28 26 23 8 -20 -20 -20 -20 -20 -20 -20 -20 -20 -20 -20 -20 -20 -20 -20 -20 -20 -20
-20 -20 -20 -20 -20 -20 -6 2 19 6 3 -15 -20 -20 -20 -20 -20 -20 -20 -20 -16 14 28 25 30 -13 -20 -20 -20 -20 -20 -20 -20 -20 -20 -20 -20 -20 -20 -20 -20 -20 -20 -20
-20 -20 -20 -20 -20 -20 -20 -14 18 28 5 2 -7 -20 -20 -20 -20 -20 -20 -20 -20 -5 22 21 9 -16 -20 -20 -20 -20 -20 -20 -20 -20 -20 -20 -20 -20 -20 -20 -20 -20 -20 -20
-20 -20 8 3 -20 -20 -20 27 29 19 22 13 -19 -15 -20 -20 -20 -20 -20 -20 7 18 20 10 14 -14 -8 -16 -20 -20 -20 -20 -20 -20 -20 -20 -20 -20 -20 -20 -20 -20 -20 -20
-20 -18 -6 1 3 -20 -4 26 30 30 21 14 -15 -20 -20 -20 -20 -20 -6 -16 13 15 17 13 16 25 21 -16 -20 8 -20 -20 -20 -20 -20 -20 -20 -20 -20 -20 -20 -20 -20 -20
-20 -14 -10 -20 -5 3 13 20 11 18 10 -15 -0 -20 -20 -20 -20 -20 -20 -3 13 15 22 24 10 16 14 -0 5 -13 -20 -20 -20 -20 -20 -20 -20 -20 -20 -20 -20 -20 -20 -20
-20 -20 -3 15 5 17 11 20 18 24 25 13 -18 -20 -20 -20 -15 -20 17 -1 13 18 7 -3 -18 11 9 -20 -20 -20 -20 -20 -20 -20 -20 -20 -20 -20 -20 -20 -20 -20 -20 -20
-20 -20 -20 21 -18 12 25 27 37 20 27 24 -6 -20 -20 -20 -20 -6 -20 -1 -0 11 -12 -5 2 -3 -4 -20 -20 -20 -20 -20 -20 -20 -20 -20 -20 -20 -20 -20 -19 -20 -20 2
-20 -20 -0 -18 -9 20 35 38 24 21 26 -10 -12 -20 -20 -20 -20 -17 -20 -12 -7 -20 -20 -20 -20 -20 -20 -20 -20 -20 -20 -20 -20 -20 -16 -2 9 -20 -18 14 -6 -20 -11 -20
-2 5 1 -9 4 34 26 31 27 -3 -18 -17 -19 -20 -20 -20 -20 -20 -20 -20 -20 -18 -20 -20 -20 -20 -20 -20 -20 -20 -20 -20 -20 -20 -20 -14 -20 -20 -20 -20 -20 -20 -20 -20
-20 -4 -8 -18 22 22 12 5 -0 -1 -20 -20 -20 -20 -20 -20 -20 -20 -20 -20 -20 -20 -20 -20 -20 -20 -20 -20 -20 -20 -20 -20 -20 -20 -20 -20 -20 -20 -20 -20 -20 -20 -20 -20
-20 -20 -20 15 11 3 1 -9 10 -6 15 17 9 -20 -20 -20 -20 -20 -20 -20 -20 -2 -20 -20 -20 -20 -20 -20 -20 -20 -20 -20 -20 -20 -20 -20 -20 -20 -20 -20 -20 -20 -20 -20
-20 -10 -20 -18 -15 12 11 11 6 -13 8 13 -9 -13 -20 -20 -20 -20 -20 -20 -20 -20 -20 -20 -20 -20 -20 -20 -20 -20 -20 -20 -20 -20 -20 -20 -20 -20 -20 -20 -20 -20 -20 -20
-9 -19 -20 -20 -20 -20 -20 -14 -11 2 -9 -6 2 10 -10 -20 -20 -20 -20 -20 -20 -20 -20 -20 -20 -20 -20 -20 -20 -20 -20 -20 -20 -20 -20 -20 -20 -20 -20 -20 -20 -20 -20 -20
-19 -20 -18 -12 -20 -20 -20 -20 -18 -9 16 6 21 2 -20 -20 -20 -20 -20 -20 -20 -20 -20 -20 -20 -20 -20 -20 -20 -20 -20 -20 -20 -20 -20 -20 -20 -20 -20 -20 -20 -20 -20 -20

GFSNW_prec_radar_012.txt.gz
Reflectivity
-20 9 -20 0 -0 18 28 24 36 21 -0 25 32 32 3 3 -19 -20 -20 -20 -20 -20 -20 -20 -20 -20 -20 -20 -20 3 -20 5 6 -19 -20 -20 -20 -20 -3 19 10 18 11 -12
4 -6 -20 -9 12 22 25 31 31 27 21 15 25 27 -20 -20 -20 -20 -20 -20 -20 -20 -20 -20 -20 -20 -20 -20 -20 -20 -6 4 -15 -20 -18 -17 -11 -20 6 17 25 12 14 -8
5 -7 -20 -13 18 22 27 29 21 22 -9 9 2 -17 -20 -20 -20 -20 -20 -20 -20 -20 -20 -20 -20 -20 -20 -20 -20 -20 -20 3 -20 -20 -20 10 19 -14 17 22 15 -20 -3 -19
5 -12 -20 -20 6 25 4 16 6 -7 8 2 11 -12 -20 -20 -20 -20 -20 -20 -20 -20 -20 -16 -20 -20 -20 -20 -20 -20 -5 -9 -5 -20 -20 -17 -5 -18 4 23 -4 8 -5 -20
-20 -20 -20 -20 -18 -20 9 23 15 -5 2 -20 -20 -20 -20 -20 -20 -20 -20 -20 -20 -20 -7 -20 -20 -20 -20 -20 -20 -20 9 -5 3 -20 -20 -20 6 -17 1 17 11 2 -1 -16
-20 -20 -20 -5 -20 -12 12 9 -10 -1 10 -1 -20 -20 -20 -20 -20 -20 -20 -20 -20 -10 -20 -20 -15 -20 -19 -8 -11 -20 4 -5 -2 -20 -20 -20 -12 18 8 -5 -19 -18 1 8
-18 -15 -20 -13 -20 3 10 12 5 9 -4 -4 -20 -20 -20 -20 -20 -20 -20 -20 -14 -9 -12 -4 -20 -20 -6 7 -3 -9 -11 -12 18 -6 -15 10 11 13 6 -20 -20 -20 -20 12
-20 -19 -19 -6 -20 -14 2 14 17 0 8 -18 -20 -20 -20 -20 -20 -15 -20 -20 -20 -20 -18 -9 -17 -20 6 -20 -16 7 -0 9 29 12 10 -7 -11 14 17 -11 -20 -6 -12 -11
6 -20 -20 4 -20 -20 20 21 14 8 13 -20 -20 -20 -20 -20 -20 -20 -20 -20 -20 -19 -16 12 11 -16 -20 -20 -20 -20 -20 -19 15 0 21 8 -4 -20 -3 -3 -15 9 8 14
5 -3 -20 -6 -20 -20 5 16 12 11 2 -20 -20 -20 -20 -20 -20 -7 -20 -20 -20 -2 14 13 15 -9 -20 -20 -20 -20 -3 22 8 6 4 7 21 15 -15 -14 -20 -20 -20 -12
-20 -10 -19 -20 -20 -20 -6 13 14 13 20 -17 -20 -20 -20 -20 -20 -20 -20 -15 -3 10 7 12 -14 13 -20 -20 -20 -20 -20 -16 -12 -20 -20 -20 -20 -20 -16 -20 -20 -20 8 21
-20 -20 -20 -20 -20 -20 -16 5 4 12 18 1 -20 -20 -20 -20 -20 -20 -20 -18 -20 -20 16 13 14 10 -20 -20 -20 -20 -20 -20 -20 -20 -20 -20 -20 -20 -20 -20 -20 -20 -20 -20
-20 -20 -20 -20 -20 -20 -20 -6 9 16 13 -20 -18 -14 -20 -20 -20 -20 5 -18 -15 -16 18 17 8 7 13 5 -20 -20 -20 -20 -20 -20 -20 -20 -20 -20 -20 -20 -20 -15 -17 -19
-20 -20 -20 -20 -20 -20 -20 -18 10 6 21 1 -17 -14 -17 -20 -20 -20 -20 -20 -16 -9 -1 14 1 2 -11 2 -20 -20 -20 -20 -20 -20 -20 -20 -20 -20 -20 -20 -20 -20 -20 -20
3 3 5 -20 -4 -8 -20 -20 9 12 9 11 12 -20 -20 -20 -20 -20 -20 -20 -20 -14 6 7 3 13 -17 5 -20 -20 -20 -20 -20 -20 -20 -20 -20 -20 -20 -20 -20 -20 -20 -20
5 4 4 -20 9 5 -3 -10 25 7 17 8 9 -20 -20 -20 -20 -20 -20 -20 -20 -16 5 5 16 12 17 12 -20 -20 -20 -20 -20 -20 -20 -20 -20 -20 -20 -20 -20 -20 -20 -20
-0 -1 0 6 9 7 6 15 17 29 25 16 -7 -20 -20 -20 -20 -17 -20 -1 10 -17 -7 -1 -10 1 20 18 -6 -20 -20 -20 -20 -20 -20 -20 -20 -20 -20 -20 -20 -20 -20 -20
-14 -9 -17 -20 12 6 4 6 11 29 21 5 8 -20 -20 -15 -11 -1 3 2 -2 1 -5 11 20 20 15 7 -20 -20 -20 -20 -20 -20 -20 -20 -20 -20 -20 -20 -20 -20 -20 -20
-2 -20 2 20 10 4 5 0 14 28 23 11 -7 -12 -20 -20 -7 -20 -20 -7 -6 -15 4 17 19 3 -16 -20 -20 -20 -20 -20 -20 -20 -20 -20 -20 -20 -20 -20 -19 -20 -20 -20
-20 -20 -20 16 -7 -2 11 23 33 29 19 18 -0 -20 -20 -20 -20 -20 -19 -20 -11 -11 -16 9 21 3 -18 -20 -20 -20 -20 -20 -20 -20 -20 -20 -20 -20 -20 -20 -20 -20 -20 -20
-20 -20 -4 -11 4 26 25 30 33 22 8 -1 -9 -19 -20 -20 -20 -12 -20 -20 -18 -10 -20 -16 -12 -20 -20 -20 -20 -20 -20 -20 -20 -20 -20 -20 -20 -20 -20 -20 -20 -0 -20 -20
-3 8 14 -4 31 29 16 31 27 -14 -20 -1 -4 -20 -20 -20 -20 -20 -20 -20 -20 -19 -20 -17 -20 -20 -20 -20 -20 -20 -20 -20 -20 -20 -20 -20 -20 -20 -20 -20 -20 -20 -20 -20
-20 -20 -20 13 0 -16 5 12 12 -5 -20 -20 -18 -16 -20 -20 -20 -20 -20 10 -19 -20 -20 -20 -20 -20 -20 -20 -20 -20 -20 -20 -20 -20 -20 -20 -19 -20 -20 -20 -20 -20 -20 -20
-20 -20 -20 -20 -20 -20 -2 -20 -8 -8 6 -1 11 6 -20 -20 -20 -20 -20 -20 -20 -20 -20 -20 -20 -20 -20 -20 -20 -20 -20 -20 -20 -20 -20 -20 -20 -20 -20 -20 -20 -20 -20 -20
-20 -20 -20 -19 -18 -14 -19 -15 9 2 12 12 3 6 -11 -6 -20 -20 -20 -20 -20 -20 -20 -20 -20 -20 -20 -20 -20 -20 -20 -20 -20 -20 -20 -20 -20 -20 -20 -20 -20 -20 -20 -20
-20 -20 -20 -20 -20 -20 -20 -20 -12 -7 14 13 -12 14 5 -12 -20 -20 -20 -20 -20 -20 -20 -20 -20 -20 -20 -20 -20 -20 -20 -20 -20 -20 -20 -20 -20 -20 -20 -20 -20 -20 -20 -20
-20 -20 -20 -20 -20 -20 -20 -20 -20 -18 -9 15 20 -9 -16 -9 -20 -20 -20 -20 -20 -20 -20 -20 -20 -20 -20 -20 -20 -20 -20 -20 -20 -20 -20 -20 -20 -20 -20 -20 -20 -20 -20 -20

GFSNW_prec_radar_015.txt.gz
Reflectivity
-20 8 -20 1 22 20 4 -6 31 15 -11 17 22 19 23 7 -20 -20 11 -17 -20 -20 -20 -20 -20 -20 -20 -20 -20 -20 -20 -12 -10 -20 -20 -20 -20 -20 -20 10 -19 11 2 -13
-1 -7 -20 1 22 16 13 7 15 -1 10 7 -7 14 18 1 23 20 -4 -20 -20 -20 -20 -20 -20 -20 -20 -20 -20 -20 -20 1 -16 -20 -17 -20 -20 -20 -17 10 19 10 15 -8
-17 8 -20 -13 -17 18 -15 19 20 2 7 -9 -18 26 14 13 13 -20 -20 -20 -20 -20 -20 -20 -20 -20 -20 -20 -20 -20 -20 -8 -20 -20 -20 -19 12 -9 -4 24 19 -18 -19 -20
-20 6 -20 -19 -20 -20 -20 -4 10 -1 -3 7 22 2 5 11 -5 -20 -20 -20 -20 -20 -20 -20 -20 -20 -20 -20 -20 -20 -20 4 -3 -20 -20 -20 -20 -20 -15 27 17 12 -2 -14
-2 7 -15 -20 -20 -20 -20 -20 -2 -20 -20 -4 -20 -20 11 8 -20 -20 -20 -20 -20 -20 -20 -12 -20 -5 -4 -8 -20 -20 -15 6 5 -20 -20 -20 -14 5 21 5 -7 -8 -8 -6
-14 4 5 2 -20 -20 -19 4 -3 1 -19 -20 -19 -3 -20 -20 -20 -20 -20 -20 -20 -20 -8 -20 -20 -20 -20 -20 -20 -18 1 -6 -0 -20 -20 -20 -11 9 6 -13 -20 -13 -1 -14
-4 3 -0 5 -20 3 -12 2 3 1 -4 -5 -19 -20 -20 -20 -20 -20 -20 -20 -7 -17 -20 -20 -20 -14 -16 -2 -18 -1 3 18 9 2 -20 -1 -2 -19 7 -2 -20 9 6 0
-20 6 5 2 -20 -8 10 2 11 7 6 -20 -20 -20 -20 -20 -20 -9 -20 -20 -20 -20 -20 -19 -15 -19 -20 -20 -20 12 9 16 17 6 1 -19 1 -6 -20 -17 -20 -18 26 18
-20 -16 1 -20 -20 -20 5 11 14 8 17 -18 -20 -20 -20 6 6 -16 -20 -20 -20 -20 -20 12 -1 -5 -17 -19 -17 -20 6 18 7 11 7 3 -14 -20 -20 -20 -15 -18 -16 -2
-20 -20 -20 -20 -20 -20 -20 9 -5 4 10 -18 -20 -20 -20 -20 -20 -0 -20 -20 -14 -6 5 12 4 -7 -11 -10 5 -20 -7 -1 5 7 9 -5 -17 -12 -20 -20 -20 -1 17 -20
-20 -20 -20 -20 -20 -20 -20 -20 6 -14 -4 -20 -20 -20 -8 -11 -20 -8 -20 -15 -16 7 15 -4 3 12 6 -20 -20 -6 -15 -14 -11 -9 -4 -11 -20 -20 -20 -20 -20 -20 -14 -11
-20 -20 -20 -20 -20 -20 -18 -6 -20 3 8 -19 -19 -18 -20 -18 -19 18 -20 -4 -20 -20 -17 5 8 14 -20 7 2 -20 -19 -19 -19 -20 4 -20 -20 -20 -20 -20 -20 -20 -20 -20
-19 -20 -20 3 -20 -3 2 4 -9 -17 22 4 -13 -8 -20 -20 -20 -20 2 -20 -9 -15 -20 19 16 12 -8 -2 -14 3 -20 -20 -20 -20 -20 -20 -20 -20 -20 -20 -20 -20 -20 -20
3 -5 7 0 -20 -14 4 8 4 -6 22 11 8 -20 -20 -20 -20 -20 -20 -20 -20 3 -5 16 15 7 10 12 -9 -20 -15 -20 -20 -20 -20 -20 -20 -20 -20 -20 -20 -20 -20 -20
-14 -17 8 1 0 -20 8 -15 -10 -0 25 18 3 -19 -20 -20 -20 -20 -20 -20 -15 -20 7 9 25 2 12 -20 -20 -20 -20 -20 -20 2 -20 -20 -20 -20 -20 -20 -20 -20 -20 -20
8 -9 9 12 -1 -3 6 8 14 24 22 24 17 -14 -20 -20 -20 -20 -20 -20 -20 -15 18 16 -4 16 14 12 -2 -20 -20 -20 -20 -20 -20 -20 -20 -20 -20 -20 -20 -20 -20 -20
2 -20 5 10 9 13 -9 7 33 28 21 27 15 -4 -16 -20 -20 -19 -16 -10 2 1 14 -8 7 -6 22 23 -12 -20 -20 -20 -20 -20 -20 -20 -20 -20 -20 -20 -20 -20 -20 -20
-13 8 -12 -10 9 15 8 4 15 6 22 22 25 15 11 -20 7 -1 -20 -16 -0 -6 -3 10 -5 13 16 6 -20 -20 -20 -20 -20 -20 -20 -20 -20 -20 -20 -20 -20 -20 -20 -20
-20 -20 -20 21 7 8 -14 3 27 28 32 17 10 3 -8 -11 -12 -10 3 0 9 9 16 -7 -7 2 -11 -20 -20 -20 -20 -20 -20 -20 -20 -20 -20 -20 -20 -20 -20 -15 -20 -20
-20 -20 5 10 -20 -20 -8 27 30 29 26 -5 -1 -20 -19 -2 -10 -1 15 -11 -15 -13 12 -20 -5 -20 -20 -20 -20 -20 -20 -20 -20 -20 -20 -20 -20 -20 -20 -20 -20 -20 -20 -20
-14 -20 -20 -20 -7 30 30 29 32 29 4 1 -1 -20 4 -20 -20 10 -20 -10 -20 -3 -13 -15 -20 -20 -12 -20 -20 -20 -20 -20 -20 -20 -20 -20 -20 -20 -20 -20 -20 -20 -20 -12
-11 -4 -20 15 30 22 15 24 32 23 6 14 11 4 -20 -20 -20 -5 -20 -17 -20 -5 -20 -16 -20 -20 -1 -8 -20 -20 -20 -20 -20 -20 -19 -13 -18 -20 -20 -20 -20 -20 -20 -20
-17 6 -19 1 -20 1 -19 -20 -14 8 -9 -7 -20 -20 -20 -20 -20 -20 -20 -6 -20 -20 -4 -20 -20 -20 -20 -11 -20 -16 -10 -20 -20 -20 -20 13 16 4 -20 3 -14 -18 -20 -20
-20 -20 -20 -20 -20 -20 2 -20 -7 -6 -3 -16 9 -5 -19 -20 -19 -20 -19 -20 -20 -18 -20 -20 -20 -20 -20 -20 -20 -20 11 -6 -12 -20 -20 -20 4 17 11 -20 -20 -20 -20 -20
-15 -20 -20 -20 -20 1 -1 -10 -13 -15 3 1 -19 -10 -14 -12 -4 -20 -20 -20 -20 -20 -20 -15 -20 -20 -20 -20 -20 -20 -19 3 1 -13 -11 -9 -7 -20 -20 -20 -20 -20 -20 -20
-20 -20 -20 -20 -20 -20 -20 -20 -17 -14 -20 -11 -3 18 -20 17 -20 -20 -20 -20 -20 -20 -20 -20 -20 -20 -20 -20 -20 -20 -20 -18 0 -15 -20 -20 -20 -20 -20 -20 -20 -20 -20 -20
-19 -20 -20 -20 -20 -20 -20 -20 -20 -20 -20 16 11 -17 9 -9 -20 -20 -20 -20 -20 -20 -20 -20 -20 -20 -20 -20 -20 -20 -20 -20 -20 -20 -19 -20 -20 -20 -20 -20 -20 -20 -20 -20

GFSNW_prec_radar_021.txt.gz
Reflectivity
-19 -20 -19 -20 -5 -20 -20 -20 -20 -7 -19 -20 12 33 29 30 0 -20 -20 -20 -20 -20 -20 -20 -20 -20 -20 -20 -20 -20 -20 -20 -20 -20 -20 -20 -20 -20 -20 -20 -20 -20 -20 -20
-20 -20 -20 -20 -20 -20 -20 -20 -20 -20 -20 -20 26 -6 -20 -16 -12 -20 -20 -20 -20 -20 -20 -20 -20 -20 -20 -20 -20 -20 -20 -20 -20 -17 -20 -20 -20 -20 -20 -20 -20 -20 -18 -20
-20 -20 -15 -20 -20 -20 -20 -20 -20 -20 -20 -20 -20 -15 -20 -20 -20 -20 -20 -20 -20 -20 -20 -20 -20 -20 -20 -20 -20 -9 -20 -20 -20 -20 -20 -20 -20 -20 -20 -18 4 -20 -20 -20
-20 -14 -20 -20 -20 -20 -20 -20 -20 -20 -20 -20 -20 -20 -20 -20 -20 -20 -20 -20 -20 -20 -20 -20 -20 -20 -20 -20 -20 -20 -20 -20 -20 -20 -20 -20 -20 -20 -20 -20 -20 9 -19 -20
-20 -20 -20 -20 -20 -20 -20 -20 -11 -20 -20 -20 -20 -20 -20 -20 -20 -20 -20 -20 -20 -20 -20 -20 -20 -20 -20 -20 -20 -20 -20 -20 -20 -20 -20 -20 -20 -20 -20 -20 -20 -4 -13 -11
-20 -20 -20 -20 -20 -20 -12 -6 -16 2 -20 -20 -20 -20 -20 -20 -20 -20 -20 -20 -20 -20 -20 -20 -20 -20 -20 -20 -20 -20 -20 -20 -20 -20 -20 -20 -20 -20 -20 -20 -20 -17 -5 -20
-20 -20 -20 -20 -20 -20 -20 5 -2 -16 -20 -20 -20 -20 -20 -20 -20 -20 -20 -20 -20 -20 -20 -20 -20 -20 -20 -20 -20 -20 -20 -20 -20 -20 -20 -20 -20 -20 -20 -20 -20 -10 -20 -20
-20 -20 -20 -20 -20 -20 -20 3 -20 -18 -18 -20 -20 -20 -20 -20 -20 -20 -20 -20 -20 -20 -20 -20 -20 -20 -17 -16 -20 -4 4 -15 -20 -4 -20 -20 -20 -20 -20 -20 -20 -20 -20 -20
9 5 -19 -20 -20 -20 -20 -4 -20 -13 -5 -20 -20 1 -20 -20 -20 -20 -20 -20 -20 -20 -20 -20 -20 -20 -15 -20 -20 7 12 -7 19 4 -20 -20 -20 -20 -20 -20 -20 -20 -20 -20
4 6 10 -10 -20 -20 -20 -20 -20 -13 4 -20 -20 0 -20 -10 -16 -20 -20 -20 -20 -20 -20 -20 -20 -20 -20 -20 -19 -11 11 26 9 -17 -14 -20 -20 -20 -20 -20 -20 -20 -20 -20
9 5 -10 4 6 -4 -20 -20 -20 -20 0 -20 -20 -20 -12 -19 -4 -13 -20 -20 -20 -20 -20 -20 -20 -20 -20 -20 -20 -20 -19 -17 -14 -6 -16 -20 -20 -20 -20 -20 -20 -20 -20 -20
-19 9 -16 -20 -18 3 -17 -20 -20 9 4 -20 -20 -20 -20 -20 -14 -17 -20 -19 -20 -20 -20 -20 -20 -20 -20 -20 -20 -20 -20 -20 -20 -20 -20 -20 -20 -20 -20 -20 -20 -20 -20 -20
0 9 8 12 9 -19 2 -20 -20 -2 -15 -20 -18 -20 -20 -20 -20 -20 8 -9 -20 -20 -20 -20 -20 -19 -17 -20 -20 -20 -20 -15 -11 -17 -20 -20 -20 -20 -20 -20 -20 -20 -20 -20
-20 -16 -12 10 14 11 7 -20 -20 9 -17 -3 4 -15 -20 -20 -20 -18 -13 -17 -20 -20 -20 -20 -20 -19 -20 -20 -20 -20 -20 -18 -15 -20 -20 -20 -20 -20 -20 -20 -20 -20 -20 -20
-9 6 -20 3 15 10 3 -20 -20 -13 6 12 17 24 11 -20 -20 -9 8 -2 -20 -20 -20 -20 -20 -20 -16 -20 -4 -20 -20 -20 -20 -20 9 -17 -20 -20 -20 -20 -20 -20 -20 -20
-20 -9 13 8 13 22 32 -15 -20 12 14 -6 23 31 15 -20 -20 -20 -19 -20 -20 -15 5 -16 -14 -20 12 2 -5 -2 -20 -20 -20 -20 -11 -20 -20 -20 -20 -20 -20 -20 -20 -20
2 9 5 -7 -15 3 22 -15 6 20 25 28 30 32 -3 0 -20 -20 -20 -20 -20 -20 6 -20 -5 -2 10 1 1 -20 -20 -20 -20 -20 -20 -20 -20 -20 -20 -20 -20 -20 -20 -20
-1 2 -20 -20 18 -20 7 -20 -3 16 32 37 30 29 23 0 -14 -13 -12 0 -12 -18 -18 8 -11 -18 -4 -3 -19 18 20 -16 -20 -20 -20 -20 -20 -20 -20 -20 -20 -20 1 -20
-20 -20 -20 -20 -17 -1 9 15 5 28 29 27 33 22 28 19 9 -4 0 -18 -13 -20 -12 -17 -4 -20 -18 -14 -16 -20 -15 -13 -20 -20 -20 -20 -20 -20 -20 -20 -20 -20 24 -16
-20 -20 -20 8 -20 -20 11 31 31 30 31 33 38 3 -8 -3 -2 -2 -10 -7 0 6 16 -16 -11 -19 -20 -20 -20 -20 -20 -20 -20 -20 -20 -20 -20 -20 -20 -20 -20 -20 25 -2
-20 -20 -20 -20 -14 -0 15 20 8 23 24 21 2 -16 -20 -20 1 -13 -9 -20 -20 -8 -0 -20 -20 -20 -20 -20 -20 -20 -20 -20 -20 -20 -20 -20 -20 -20 -20 -20 -20 -20 -20 25
-19 -1 -20 -6 21 20 8 -17 16 3 17 -20 -11 -20 -20 -20 -20 -20 -20 -19 -3 -10 -20 -20 -19 -20 -20 -20 -20 -20 -20 -14 -20 -20 -20 -20 -20 -20 -20 -20 -20 -20 -20 -20
-3 3 -16 -14 -16 -19 -17 -20 -13 4 13 -14 -17 -20 -20 -20 -20 -20 -16 -13 -20 -20 -20 -20 -20 -20 -20 -20 -20 -20 -20 -15 5 -19 10 -20 -20 -20 -15 3 -10 -20 -20 17
-20 -20 -20 -20 -5 -11 -20 -20 -20 -9 20 -1 -20 -20 -20 -20 -20 -14 -20 -20 -20 -20 -2 -20 -20 -20 -20 -20 -20 -20 4 -5 23 15 21 -2 14 3 21 21 12 -4 19 29
-20 -20 -20 -20 -20 -14 -10 -7 -13 -13 0 -9 -17 -15 -18 -20 -20 -20 -20 -20 -20 -20 -20 -14 -20 -20 -20 -20 -20 -20 -11 9 -13 25 -20 -4 24 16 25 31 24 7 -6 -18
-20 -18 -20 -17 -20 -16 -1 5 -20 -20 -14 -2 -8 20 -18 -16 -5 -9 2 -20 -20 -20 -20 -20 -20 -20 -20 -20 -20 -20 -20 -11 -3 -13 8 -3 10 18 9 -6 -0 7 8 -13
-19 -7 -20 -20 -20 -20 -20 -19 -15 -20 15 17 13 0 -20 -8 -18 -20 4 -20 -20 -20 -20 -20 -20 -20 -20 -20 -20 -20 -20 -20 -20 -20 -20 -20 -9 -20 -18 -1 9 9 -13 -20